Regional Weather Roundup
Issued by NWS

Home | Current Version | Previous Version | Graphics & Text | Print | Product List | Glossary On
Versions: 1 2 3 4 5 6 7 8 9 10 11 12 13 14 15 16 17 18 19 20 21 22 23 24 25 26 27 28 29 30 31 32 33 34 35 36 37 38 39 40 41 42 43 44 45 46 47 48 49 50
000
ASUS43 KLOT 280710
RWRIL

ILLINOIS REGIONAL WEATHER ROUNDUP
NATIONAL WEATHER SERVICE CHICAGO/ROMEOVILLE IL
100 AM CST SAT FEB 28 2015

NOTE: "FAIR" INDICATES FEW OR NO CLOUDS BELOW 12,000 FEET WITH NO
SIGNIFICANT WEATHER AND/OR OBSTRUCTIONS TO VISIBILITY.

* THESE STATIONS ARE NOT UNDER NWS QUALITY CONTROL. THEY ALSO MAY NOT
  REPORT WEATHER SUCH AS PRECIPITATION OR FOG.

ILZ001-002-007-009-015-016-024-280800-
NORTHWEST ILLINOIS

CITY           SKY/WX    TMP DP  RH WIND       PRES   REMARKS
MOLINE         PTCLDY   -14 -21  71 CALM      30.67S
STERLING*      PTCLDY   -17 -18  91 CALM      30.66S
SAVANNA*       PTCLDY   -11 -17  77 CALM      30.67S
$$

ILZ003-004-008-010-011-017-018-280800-
NORTH CENTRAL ILLINOIS

CITY           SKY/WX    TMP DP  RH WIND       PRES   REMARKS
ROCKFORD       PTCLDY    -7 -14  71 S3        30.67S
FREEPORT*      PTCLDY    -5 -11  77 CALM      30.66S
ROCHELLE*      PTCLDY   -10 -15  82 CALM      30.67R
DE KALB*       PTCLDY    -1  -8  73 W6        30.65S WCI -13
PERU*          MOCLDY    -3  -8  82 CALM      30.68R
$$

ILZ005-006-012>014-019>023-280800-
NORTHEAST ILLINOIS

CITY           SKY/WX    TMP DP  RH WIND       PRES   REMARKS
CHICAGO-OHARE  CLEAR      2  -6  69 W6        30.66S WCI  -9
CHICAGO-MIDWAY CLEAR      5  -5  63 SW5       30.69R WCI  -4
AURORA         PTCLDY   -16 -20  82 CALM      30.67S
LANSING*       PTCLDY    -9 -14  79 CALM      30.70R
JOLIET*        PTCLDY   -10 -15  82 CALM      30.69S
WAUKEGAN       CLEAR     -4  -9  79 SW3       30.65R
DUPAGE AIRPORT PTCLDY    -6 -10  83 S3        30.66R
KANKAKEE*      PTCLDY    -5  -9  84 CALM      30.69F
WHEELING       CLEAR      2  -6  69 CALM      30.68S
MORRIS*        PTCLDY    -6  -9  89 CALM      30.68S
ROMEOVILLE*    PTCLDY     0  -4  81 SW3       30.68S
NORTHERLY ISL    N/A      8  -2  63 W6          N/A  WCI  -2
$$

LMZ740>746-280800-
SOUTHERN LAKE MICHIGAN

STATION/POSITION SKY/WX   TEMP    WIND        PRES    VSBY  WAVE
                          AIR SEA DIR/SP/G                  HT/PER
                          (F)     (DEG/KT/KT) (MB)    (MI)  (FT/S)
WAUKEGAN HARBOR             4     250/  7/ 10   N/A
HARRISON CRIB               9     270/ 10/ 12   N/A
BURNHAM HARBOR              8     250/  5/  8   N/A
CALUMET HARBOR              5     220/  3/  5 1037.5F
MICHIGAN CITY               4     180/  6/  6   N/A
$$

ILZ025>027-034>036-040-047-049-050-058-095>099-280800-
WEST-CENTRAL ILLINOIS

CITY           SKY/WX    TMP DP  RH WIND       PRES   REMARKS
QUINCY         CLOUDY     8  -2  63 E5        30.62F WCI   0
GALESBURG*     PTCLDY    -6  -9  84 E3        30.64S
MACOMB*        PTCLDY    -6 -10  81 NE3       30.67S
JACKSONVILLE*  MOCLDY     5  -2  72 E6        30.65S WCI  -6
PITTSFIELD*    FAIR       9   1  69 E3        30.64S
$$

ILZ028>032-037-038-041>044-048-051>054-059>061-280800-
CENTRAL ILLINOIS

CITY           SKY/WX    TMP DP  RH WIND       PRES   REMARKS
PONTIAC        MOCLDY    -1  -4  85 CALM      30.68S
BLOOMINGTON    PTCLDY     5  -1  76 CALM      30.66R
DECATUR        MOCLDY     2  -3  80 NE5       30.66S WCI  -8
PEORIA         PTCLDY     4  -3  73 CALM      30.67S
LACON*         MOCLDY    -6 -11  77 CALM      30.68R
LINCOLN*       CLOUDY     8   3  78 CALM      30.70S
SPRINGFIELD    MOCLDY     5  -1  76 NE3       30.66F
TAYLORVILLE    MOCLDY     9   1  72 E3        30.65S
$$

ILZ033-039-045-046-055>057-062-063-280800-
EAST-CENTRAL ILLINOIS

CITY           SKY/WX    TMP DP  RH WIND       PRES   REMARKS
CHAMPAIGN      PTCLDY     5  -2  72 NE6       30.65F WCI  -6
DANVILLE*      PTCLDY     1  -3  81 E3        30.64S
RANTOUL*       PTCLDY     5   0  77 CALM      30.66S
MATTOON        PTCLDY     5  -2  72 NE3       30.65S
PARIS*         PTCLDY    -1  -4  86 CALM      30.67S
$$

ILZ079-100>102-280800-
SOUTHWEST ILLINOIS

CITY           SKY/WX    TMP DP  RH WIND       PRES   REMARKS
ALTON          CLOUDY    11  -2  56 E3        30.66S
BELLEVILLE     CLOUDY    14   5  65 E6        30.65R WCI   5
CAHOKIA*       CLOUDY    15   4  61 NE5       30.66S WCI   8
SPARTA*        CLOUDY    16   8  68 NE7       30.64S WCI   7
$$

ILZ064>066-069>071-074>076-080>082-084>086-088>090-092>094-280800-
SOUTH-CENTRAL ILLINOIS

CITY           SKY/WX    TMP DP  RH WIND       PRES   REMARKS
CARBONDALE     CLOUDY    18   8  65 E6        30.63F WCI  10
CAIRO*         CLOUDY    23  13  66 NE9       30.62S WCI  13
EFFINGHAM*     PTCLDY     8  -3  61 NE5       30.67S WCI   0
MARION         CLOUDY    19   9  63 NE6       30.64F WCI  11
MT. VERNON     CLOUDY    12   3  67 NE6       30.65S WCI   3
CENTRALIA*     CLOUDY    13   3  65 E6        30.65S WCI   3
SALEM*         MOCLDY    12   3  65 E3        30.66S
METROPOLIS*    MOCLDY    20  13  73 NE3       30.61F
$$

ILZ067-068-072-073-078-083-087-091-280800-
SOUTHEAST ILLINOIS

CITY           SKY/WX    TMP DP  RH WIND       PRES   REMARKS
LAWRENCEVILLE  PTCLDY    11   1  64 NE9       30.67S WCI  -2
FLORA*         CLOUDY     9   0  66 NE5       30.67R WCI   0
FAIRFIELD*     CLEAR     12   4  69 N3        30.66R
HARRISBURG*    CLOUDY    18   9  66 NE7       30.67R WCI   9
ROBINSON*      MOCLDY     7   1  73 N6        30.68S WCI  -3
CARMI*         PTCLDY    19  11  72 N6        30.65R WCI  11
$$

ABBREVIATIONS USED IN REMARKS
   TC - TEMPERATURE IN CELSIUS
  WCI - WIND CHILL INDEX
   HX - HEAT INDEX
  VSB - VISIBILITY
$$




USA.gov is the U.S. government's official web portal to all federal, state and local government web resources and services.